Lid_Strength_Index
-1 -1 -1 -1 -1 -1 -1 -0 2 4 3 1 1 -1 -1 -1 -2 -2 -2 1 1 1 2 2 2 2 2 2 -0 1 0 -0 -1 -1 -1 -1 -2 -2
-1 -0 -1 -1 -1 -1 -1 -1 -0 2 3 1 0 -0 -1 -1 -1 -2 -2 -1 1 1 1 2 2 2 3 3 2 0 1 0 -0 -0 -0 -0 -1 -2
-0 -0 -0 -1 -0 -0 -1 -1 0 1 2 1 0 -1 -1 -1 -1 -2 -2 -2 -1 1 2 2 2 3 3 4 3 3 0 1 1 0 0 -0 -1 -1
0 -0 0 -0 -0 -1 -0 0 0 -0 1 2 1 0 -0 -1 -1 -1 -1 -1 -1 1 2 2 2 3 3 3 4 4 3 2 2 2 1 1 -0 -1
-0 0 0 -0 0 -0 0 0 0 0 0 1 2 0 0 -0 -0 -1 -1 -1 -1 1 2 2 3 3 4 4 5 4 5 5 4 3 3 2 1 -0
-1 -1 -0 -0 -0 -0 -0 -0 -0 -0 -0 1 1 1 1 -0 -0 1 1 -0 -0 -1 -0 1 2 3 3 3 4 5 6 7 7 6 5 4 3 1
-0 -1 -1 -0 1 0 -0 -0 -0 1 1 1 2 1 1 1 1 1 1 1 -0 -1 -0 -1 -1 -1 -1 3 1 3 5 6 7 7 7 7 5 5
-0 -0 -1 0 0 3 3 3 1 0 1 2 2 2 1 1 0 1 1 2 3 -1 0 0 -1 -0 -1 -1 2 2 5 5 6 7 7 7 7 6
-0 -0 -0 -0 0 -1 2 3 3 4 3 -0 1 1 1 0 0 1 1 1 2 0 -0 1 -1 0 -1 -1 3 4 5 5 6 6 8 8 8 8
-0 -0 -0 -0 -0 0 -0 -0 -0 -0 -1 -0 -0 -0 -1 -1 -1 -0 0 0 0 -0 -1 3 0 1 -1 -1 2 4 5 6 6 7 8 9 9 10
-0 -0 -0 -0 7 7 0 1 0 0 2 4 4 5 4 4 3 -0 1 2 2 1 -0 1 1 1 0 -0 -1 4 5 6 7 7 8 8 10 11
0 1 6 5 7 8 2 0 1 1 0 -0 -0 0 2 0 5 -0 0 2 2 3 0 1 1 1 2 -0 -1 -1 -1 7 9 9 9 9 10 4
3 2 1 7 9 9 8 2 3 4 3 1 0 -0 -0 -0 -1 -1 -2 0 2 2 0 0 1 1 2 2 0 -0 -1 -0 -1 2 11 11 11 7
3 3 3 9 10 9 6 6 7 6 2 2 1 1 1 0 -0 -1 -1 -1 -1 -1 -1 -1 1 1 2 2 2 0 -0 -1 -1 -0 -1 4 11 11
4 6 8 9 8 6 7 6 5 0 1 1 1 1 0 -0 -1 -1 -1 -2 -2 -2 -1 -2 -0 0 1 2 2 1 2 0 -0 -0 -0 -0 -0 1
7 5 6 7 8 6 4 3 1 1 1 2 2 1 1 1 1 -0 0 1 1 1 -1 -2 -2 -1 1 1 1 2 1 2 0 0 -0 -0 -1 -1
5 1 2 4 5 4 2 2 2 2 3 4 4 3 4 3 3 2 1 1 2 2 1 -0 -1 -1 -0 0 2 1 1 1 0 0 0 1 0 -0
3 3 2 2 2 2 3 3 2 1 1 3 4 4 5 4 4 3 2 2 2 1 1 1 1 1 1 0 1 1 1 1 1 0 0 2 1 -0
4 3 3 3 3 2 1 1 1 1 1 1 1 2 4 4 5 4 3 3 3 2 2 1 1 1 3 4 1 4 1 1 1 1 1 1 2 1
5 5 3 3 3 3 3 3 3 3 3 2 2 2 2 2 2 3 3 3 3 3 3 2 2 1 3 3 3 1 4 0 1 2 1 1 0 4
5 5 4 4 4 4 3 4 4 4 4 3 2 3 4 5 5 4 3 5 5 3 3 3 2 3 1 0 2 2 0 5 2 1 1 2 2 2
7 7 7 7 6 4 4 4 4 4 4 4 4 4 4 4 6 6 5 5 5 4 4 3 2 2 2 3 3 2 1 -0 1 4 5 4 2 4
7 7 7 7 7 7 7 7 7 6 6 6 6 6 6 7 7 7 7 7 6 6 5 5 4 3 3 3 4 3 1 1 1 1 0 3 5 6